CW2274 Weather Reports


Display with metric or nautical units.
time (UTC)temp
F
wind
direction
speed
MPH
gust
MPH
rain 1hr
in
rain 24hr
in
rain mn
in
humidity
%
barometer
mb
20260902092526 77 250 0.0 2.0 0.00 0.00 0.00 76 1017.6
20260902092021 77 250 1.0 1.0 0.00 0.00 0.00 75 1017.7
20260902091520 77 250 1.0 1.0 0.00 0.00 0.00 74 1017.7
20260902091015 77 250 0.0 1.0 0.00 0.00 0.00 75 1017.5
20260902090529 77 250 0.0 1.0 0.00 0.00 0.00 74 1017.5
20260902090035 78 250 0.0 1.0 0.00 0.00 0.00 70 1017.5
20260902085515 78 250 0.0 2.0 0.00 0.00 0.00 70 1017.5
20260902085029 79 250 1.0 2.0 0.00 0.00 0.00 70 1017.5
20260902084523 78 250 1.0 2.0 0.00 0.00 0.00 71 1017.4
20260902084022 78 250 2.0 3.0 0.00 0.00 0.00 70 1017.5
20260902083516 79 250 1.0 4.0 0.00 0.00 0.00 66 1017.4
20260902083030 80 250 2.0 4.0 0.00 0.00 0.00 65 1017.4
20260902082523 80 249 2.0 8.0 0.00 0.00 0.00 65 1017.3
20260902082018 80 249 3.0 8.0 0.00 0.00 0.00 65 1017.3
20260902081512 80 258 3.0 7.0 0.00 0.00 0.00 66 1017.4
20260902081027 79 268 3.0 7.0 0.00 0.00 0.00 68 1017.4
20260902080521 79 271 3.0 6.0 0.00 0.00 0.00 69 1017.5
20260902080031 78 270 2.0 4.0 0.00 0.00 0.00 69 1017.5
20260902075531 78 270 1.0 2.0 0.00 0.00 0.00 72 1017.4
20260902075025 77 270 0.0 2.0 0.00 0.00 0.00 74 1017.2
20260902074519 77 270 0.0 1.0 0.00 0.00 0.00 75 1017.1
20260902074014 78 270 0.0 3.0 0.00 0.00 0.00 71 1017.3
20260902073528 78 270 1.0 3.0 0.00 0.00 0.00 71 1017.3
20260902073023 79 270 1.0 2.0 0.00 0.00 0.00 70 1017.3
20260902072523 79 270 0.0 3.0 0.00 0.00 0.00 70 1017.3
20260902072018 79 270 2.0 3.0 0.00 0.00 0.00 70 1017.3
20260902071512 79 270 2.0 3.0 0.00 0.00 0.00 70 1017.4
20260902071027 79 270 2.0 4.0 0.00 0.00 0.00 69 1017.3
20260902070521 80 270 2.0 4.0 0.00 0.00 0.00 68 1017.3
20260902070027 78 320 2.0 3.0 0.00 0.00 0.00 70 1017.3
20260902065526 78 320 1.0 2.0 0.00 0.00 0.00 71 1017.2
20260902065021 78 320 0.0 2.0 0.00 0.00 0.00 71 1017.2
20260902064520 78 320 1.0 2.0 0.00 0.00 0.00 72 1017.2
20260902064015 78 320 0.0 1.0 0.00 0.00 0.00 71 1017.2
20260902063529 78 320 0.0 2.0 0.00 0.00 0.00 73 1017.2
20260902063024 78 320 0.0 2.0 0.00 0.00 0.00 73 1017.2
20260902062520 79 320 1.0 2.0 0.00 0.00 0.00 69 1017.1
20260902062014 79 320 0.0 2.0 0.00 0.00 0.00 69 1017.0
20260902061529 79 320 0.0 2.0 0.00 0.00 0.00 71 1017.1
20260902061027 79 320 2.0 2.0 0.00 0.00 0.00 68 1017.1
20260902060521 79 320 1.0 2.0 0.00 0.00 0.00 68 1017.2
20260902060028 80 320 0.0 2.0 0.00 0.00 0.00 67 1017.0
20260902055528 80 320 1.0 2.0 0.00 0.00 0.00 66 1017.1
20260902055022 80 320 1.0 2.0 0.00 0.00 0.00 65 1017.1
20260902054517 80 320 1.0 2.0 0.00 0.00 0.00 64 1017.1
20260902054012 80 320 1.0 2.0 0.00 0.00 0.00 64 1017.1
20260902053526 80 320 1.0 2.0 0.00 0.00 0.00 64 1017.2
20260902053024 80 320 2.0 3.0 0.00 0.00 0.00 63 1017.2
20260902052520 81 320 1.0 3.0 0.00 0.00 0.00 63 1017.3
20260902052016 81 320 2.0 2.0 0.00 0.00 0.00 63 1017.3
20260902051530 81 320 1.0 2.0 0.00 0.00 0.00 64 1017.2
20260902051024 81 320 2.0 3.0 0.00 0.00 0.00 63 1017.3
20260902050519 81 320 2.0 3.0 0.00 0.00 0.00 63 1017.3
20260902050026 81 320 2.0 3.0 0.00 0.00 0.00 64 1017.3
20260902045530 81 320 2.0 3.0 0.00 0.00 0.00 64 1017.3
20260902045025 81 320 1.0 2.0 0.00 0.00 0.00 63 1017.3
20260902044519 81 320 1.0 2.0 0.00 0.00 0.00 63 1017.3
20260902044013 81 320 1.0 3.0 0.00 0.00 0.00 62 1017.3
20260902043528 81 320 2.0 5.0 0.00 0.00 0.00 62 1017.3
20260902043023 82 320 2.0 5.0 0.00 0.00 0.00 64 1017.3
20260902042517 82 320 2.0 3.0 0.00 0.00 0.00 63 1017.2
20260902042015 82 320 2.0 3.0 0.00 0.00 0.00 64 1017.2
20260902041530 82 320 2.0 3.0 0.00 0.00 0.00 63 1017.2
20260902041025 82 320 1.0 3.0 0.00 0.00 0.00 63 1017.3
20260902040520 82 320 2.0 3.0 0.00 0.00 0.00 65 1017.1
20260902040026 82 320 1.0 2.0 0.00 0.00 0.00 65 1017.0
20260902035526 82 320 1.0 2.0 0.00 0.00 0.00 66 1016.9
20260902035020 82 320 2.0 2.0 0.00 0.00 0.00 65 1017.1
20260902034515 82 320 1.0 2.0 0.00 0.00 0.00 63 1017.0
20260902034013 82 320 1.0 2.0 0.00 0.00 0.00 63 1016.9
20260902033527 83 320 1.0 2.0 0.00 0.00 0.00 62 1016.8
20260902033021 83 320 1.0 3.0 0.00 0.00 0.00 62 1016.7
20260902032515 83 320 2.0 3.0 0.00 0.00 0.00 62 1016.5
20260902032030 83 320 1.0 2.0 0.00 0.00 0.00 62 1016.5
20260902031523 84 320 1.0 2.0 0.00 0.00 0.00 61 1016.3
20260902031018 84 320 1.0 2.0 0.00 0.00 0.00 61 1016.2
20260902030516 84 320 1.0 2.0 0.00 0.00 0.00 60 1016.1
20260902030043 84 320 2.0 5.0 0.00 0.00 0.00 58 1016.0
20260902025522 85 320 2.0 5.0 0.00 0.00 0.00 58 1015.9
20260902025016 85 320 2.0 5.0 0.00 0.00 0.00 58 1015.6
20260902024530 85 320 1.0 3.0 0.00 0.00 0.00 57 1015.6
20260902024024 85 320 2.0 3.0 0.00 0.00 0.00 58 1015.7
20260902023518 85 320 2.0 2.0 0.00 0.00 0.00 57 1015.5
20260902023032 85 320 1.0 2.0 0.00 0.00 0.00 55 1015.5
20260902022531 86 320 1.0 2.0 0.00 0.00 0.00 53 1015.4
20260902022025 87 320 1.0 2.0 0.00 0.00 0.00 51 1015.3
20260902021520 87 320 1.0 2.0 0.00 0.00 0.00 51 1015.3
20260902021016 87 320 1.0 2.0 0.00 0.00 0.00 51 1015.2
20260902020530 87 320 1.0 2.0 0.00 0.00 0.00 50 1015.2
20260902020036 87 320 0.0 2.0 0.00 0.00 0.00 49 1015.0
20260902015516 87 320 1.0 2.0 0.00 0.00 0.00 48 1015.0
20260902015015 88 320 1.0 3.0 0.00 0.00 0.00 48 1014.9
20260902014530 88 320 1.0 3.0 0.00 0.00 0.00 47 1014.9
20260902014024 88 320 0.0 5.0 0.00 0.00 0.00 47 1014.9
20260902013519 89 308 2.0 5.0 0.00 0.00 0.00 46 1014.9
20260902013013 89 308 1.0 3.0 0.00 0.00 0.00 47 1014.9
20260902012528 89 303 1.0 3.0 0.00 0.00 0.00 46 1015.0
20260902012022 89 302 1.0 4.0 0.00 0.00 0.00 45 1015.0
20260902011517 90 302 1.0 7.0 0.00 0.00 0.00 44 1015.0
20260902011016 90 295 2.0 7.0 0.00 0.00 0.00 43 1014.8
20260902010531 90 310 2.0 5.0 0.00 0.00 0.00 42 1014.8
20260902010038 90 317 1.0 3.0 0.00 0.00 0.00 40 1014.7
20260902005517 91 317 1.0 4.0 0.00 0.00 0.00 40 1014.7
20260902005031 91 317 2.0 7.0 0.00 0.00 0.00 38 1014.8
20260902004525 91 293 3.0 7.0 0.00 0.00 0.00 39 1014.7
20260902004019 91 320 2.0 7.0 0.00 0.00 0.00 37 1014.7
20260902003518 92 317 2.0 7.0 0.00 0.00 0.00 37 1014.8
20260902003032 92 315 2.0 5.0 0.00 0.00 0.00 37 1014.9
20260902002526 91 320 1.0 8.0 0.00 0.00 0.00 38 1015.0
20260902002020 92 318 2.0 8.0 0.00 0.00 0.00 37 1015.0
20260902001514 92 310 2.0 5.0 0.00 0.00 0.00 38 1015.0
20260902001029 92 351 2.0 8.0 0.00 0.00 0.00 39 1015.1
20260902000523 92 288 2.0 8.0 0.00 0.00 0.00 38 1015.0
20260902000029 93 302 3.0 10.0 0.00 0.00 0.00 37 1015.1
20260901235533 93 287 4.0 10.0 0.00 0.00 0.00 37 1015.1
20260901235026 92 300 3.0 5.0 0.00 0.00 0.00 38 1015.2
20260901234520 92 302 2.0 5.0 0.00 0.00 0.00 39 1015.2
20260901234014 93 300 3.0 5.0 0.00 0.00 0.00 38 1015.2
20260901233528 93 308 2.0 6.0 0.00 0.00 0.00 39 1015.2
20260901233022 93 321 2.0 6.0 0.00 0.00 0.00 39 1015.3
20260901232516 92 356 3.0 6.0 0.00 0.00 0.00 39 1015.4
20260901232014 93 298 2.0 7.0 0.00 0.00 0.00 40 1015.4
20260901231528 94 294 3.0 7.0 0.00 0.00 0.00 41 1015.3
20260901231023 93 321 2.0 6.0 0.00 0.00 0.00 41 1015.6
20260901230517 93 293 1.0 4.0 0.00 0.00 0.00 41 1015.4
20260901230044 93 311 2.0 5.0 0.00 0.00 0.00 40 1015.5
20260901225522 93 309 2.0 5.0 0.00 0.00 0.00 40 1015.5
20260901225017 93 296 1.0 10.0 0.00 0.00 0.00 40 1015.6
20260901224531 94 290 4.0 10.0 0.00 0.00 0.00 41 1015.6
20260901224030 93 273 4.0 8.0 0.00 0.00 0.00 40 1015.7
20260901223526 92 352 2.0 6.0 0.00 0.00 0.00 42 1015.6
20260901223021 92 5 2.0 7.0 0.00 0.00 0.00 42 1015.8
20260901222517 92 11 4.0 7.0 0.00 0.00 0.00 42 1015.8
20260901222032 92 23 4.0 7.0 0.00 0.00 0.00 42 1015.8
20260901221527 92 1 4.0 7.0 0.00 0.00 0.00 42 1015.8
20260901221022 92 4 1.0 8.0 0.00 0.00 0.00 44 1015.9
20260901220521 91 43 4.0 9.0 0.00 0.00 0.00 43 1015.9
20260901220028 92 9 4.0 9.0 0.00 0.00 0.00 42 1016.1
20260901215528 92 9 3.0 8.0 0.00 0.00 0.00 43 1016.2
20260901215023 91 68 4.0 8.0 0.00 0.00 0.00 43 1016.3
20260901214516 91 40 4.0 8.0 0.00 0.00 0.00 44 1016.4
20260901214031 92 19 3.0 7.0 0.00 0.00 0.00 43 1016.4
20260901213525 92 354 3.0 8.0 0.00 0.00 0.00 42 1016.5
20260901213019 93 2 2.0 7.0 0.00 0.00 0.00 41 1016.6
20260901212518 92 336 3.0 5.0 0.00 0.00 0.00 43 1016.7
20260901212031 91 335 2.0 6.0 0.00 0.00 0.00 42 1016.7
20260901211526 92 335 3.0 7.0 0.00 0.00 0.00 42 1016.9
20260901211021 92 323 2.0 6.0 0.00 0.00 0.00 41 1016.8
20260901210516 93 318 2.0 9.0 0.00 0.00 0.00 41 1016.9
20260901210042 92 6 2.0 9.0 0.00 0.00 0.00 42 1016.9
20260901205523 93 277 3.0 7.0 0.00 0.07 0.00 40 1017.1
20260901205022 92 277 3.0 7.0 0.00 0.07 0.00 42 1017.1
20260901204518 90 225 3.0 6.0 0.00 0.07 0.00 43 1017.2
20260901203515 92 310 1.0 7.0 0.00 0.07 0.00 41 1017.3
20260901203030 91 352 1.0 3.0 0.00 0.07 0.00 42 1017.4
20260901202526 90 352 1.0 4.0 0.00 0.07 0.00 42 1017.5
20260901202022 90 352 2.0 4.0 0.00 0.07 0.00 42 1017.7
20260901201520 93 300 2.0 6.0 0.00 0.07 0.00 40 1017.7
20260901201015 93 343 1.0 6.0 0.00 0.07 0.00 41 1017.7
20260901200529 92 314 2.0 6.0 0.00 0.07 0.00 40 1017.7
20260901200036 90 337 2.0 4.0 0.00 0.07 0.00 43 1017.8
20260901195516 90 292 1.0 6.0 0.00 0.15 0.00 43 1018.0
20260901195030 92 291 1.0 7.0 0.00 0.15 0.00 40 1018.0
20260901194525 92 298 3.0 7.0 0.00 0.15 0.00 41 1018.0
20260901194019 91 354 1.0 4.0 0.00 0.15 0.00 42 1018.1
20260901193518 89 354 1.0 4.0 0.00 0.15 0.00 42 1018.2
20260901193012 90 354 2.0 5.0 0.00 0.15 0.00 44 1018.2
20260901192526 89 24 2.0 5.0 0.00 0.15 0.00 45 1018.3
20260901192021 90 102 1.0 3.0 0.00 0.15 0.00 45 1018.3
20260901191516 89 103 1.0 4.0 0.00 0.15 0.00 46 1018.4
20260901191031 88 103 2.0 4.0 0.00 0.15 0.00 45 1018.4
20260901190527 88 104 2.0 8.0 0.00 0.15 0.00 44 1018.4
20260901190039 88 107 4.0 9.0 0.00 0.15 0.00 44 1018.5
20260901185519 88 38 3.0 6.0 0.00 0.40 0.00 46 1018.7
20260901185014 88 29 2.0 4.0 0.00 0.40 0.00 45 1018.7
20260901184530 87 267 2.0 4.0 0.00 0.40 0.00 45 1018.7
20260901184026 87 269 2.0 4.0 0.00 0.40 0.00 46 1018.8
20260901183522 88 270 2.0 8.0 0.00 0.40 0.00 45 1018.8
20260901183018 91 270 2.0 8.0 0.00 0.40 0.00 47 1018.9
20260901182516 90 275 3.0 8.0 0.00 0.40 0.00 46 1018.9
20260901182032 90 277 2.0 7.0 0.00 0.40 0.00 47 1018.9
20260901181527 89 325 2.0 5.0 0.00 0.40 0.00 45 1018.9
20260901181023 88 325 1.0 5.0 0.00 0.40 0.00 46 1018.9
20260901180517 89 325 1.0 5.0 0.00 0.40 0.00 47 1018.9
20260901180045 88 325 2.0 5.0 0.00 0.40 0.00 48 1019.0
20260901175525 87 8 2.0 5.0 0.00 0.76 0.00 49 1019.1
20260901175022 86 83 2.0 4.0 0.00 0.76 0.00 50 1019.2
20260901174522 87 84 3.0 4.0 0.00 0.76 0.00 48 1019.1
20260901174018 86 88 1.0 4.0 0.00 0.76 0.00 49 1019.2
20260901173532 86 88 1.0 7.0 0.00 0.76 0.00 50 1019.1
20260901173027 85 88 3.0 7.0 0.00 0.76 0.00 52 1019.1
20260901172522 85 54 3.0 7.0 0.00 0.76 0.00 50 1019.1
20260901172016 84 98 2.0 4.0 0.00 0.76 0.00 51 1019.2
20260901171531 84 97 1.0 4.0 0.00 0.76 0.00 53 1019.1
20260901171031 84 97 2.0 4.0 0.00 0.76 0.00 54 1019.2
20260901170525 84 98 3.0 4.0 0.00 0.76 0.00 54 1019.2
20260901170033 83 99 2.0 4.0 0.00 0.76 0.00 54 1019.1
20260901165513 83 98 2.0 7.0 0.00 0.76 0.00 57 1019.2
20260901165028 82 98 4.0 7.0 0.00 0.76 0.00 56 1019.2
20260901164523 82 122 4.0 6.0 0.00 0.76 0.00 57 1019.2
20260901164019 81 135 2.0 6.0 0.00 0.76 0.00 59 1019.2
20260901163518 81 87 2.0 5.0 0.00 0.76 0.00 61 1019.1
20260901163013 81 85 3.0 7.0 0.00 0.76 0.00 63 1019.1
20260901162528 81 91 3.0 7.0 0.00 0.76 0.00 64 1019.1
20260901162024 81 107 3.0 7.0 0.00 0.76 0.00 63 1019.1
20260901161519 80 98 4.0 6.0 0.00 0.76 0.00 64 1019.2
20260901161014 80 79 3.0 7.0 0.00 0.76 0.00 65 1019.2
20260901160529 80 75 4.0 7.0 0.00 0.76 0.00 65 1019.2
20260901160036 79 65 4.0 7.0 0.00 0.76 0.00 65 1019.3
20260901155520 79 79 4.0 7.0 0.00 0.76 0.00 67 1019.3
20260901155015 79 71 3.0 7.0 0.00 0.76 0.00 67 1019.2
20260901154530 78 100 4.0 6.0 0.00 0.76 0.00 70 1019.1
20260901154025 78 107 3.0 8.0 0.00 0.76 0.00 69 1019.2
20260901153520 78 90 3.0 8.0 0.00 0.76 0.00 69 1019.2
20260901153016 78 102 4.0 7.0 0.00 0.76 0.00 69 1019.2
20260901152512 77 124 4.0 8.0 0.00 0.76 0.00 71 1019.2
20260901152031 77 137 4.0 8.0 0.00 0.76 0.00 70 1019.2
20260901151526 77 148 2.0 9.0 0.00 0.76 0.00 73 1019.2
20260901151021 76 159 5.0 9.0 0.00 0.76 0.00 72 1019.2
20260901150517 76 133 5.0 8.0 0.00 0.76 0.00 72 1019.2
20260901150027 76 142 3.0 8.0 0.00 0.76 0.00 74 1019.2
20260901145527 75 99 5.0 10.0 0.00 0.76 0.00 74 1019.2
20260901145022 75 110 5.0 10.0 0.00 0.76 0.00 74 1019.3
20260901144522 75 123 4.0 9.0 0.00 0.76 0.00 74 1019.2
20260901144016 75 192 2.0 9.0 0.00 0.76 0.00 76 1019.2
20260901143513 75 159 4.0 8.0 0.00 0.76 0.00 74 1019.2
20260901143027 75 127 2.0 4.0 0.00 0.76 0.00 77 1019.2
20260901142523 74 127 2.0 5.0 0.00 0.76 0.00 77 1019.2
20260901142018 74 127 3.0 5.0 0.00 0.76 0.00 78 1019.1
20260901141513 73 131 2.0 4.0 0.00 0.76 0.00 79 1019.0
20260901141013 73 131 2.0 4.0 0.00 0.76 0.00 80 1019.0
20260901140528 73 132 2.0 3.0 0.00 0.76 0.00 80 1018.9
20260901140036 73 132 1.0 2.0 0.00 0.76 0.00 81 1018.9
20260901135517 72 132 0.0 1.0 0.00 0.77 0.00 82 1018.7
20260901135013 72 132 0.0 0.0 0.00 0.77 0.00 83 1018.6
20260901134528 72 132 0.0 0.0 0.00 0.77 0.00 84 1018.7
20260901134024 72 132 0.0 0.0 0.00 0.77 0.00 85 1018.7
20260901133519 71 132 0.0 0.0 0.00 0.77 0.00 86 1018.7
20260901133019 70 132 0.0 0.0 0.00 0.77 0.00 86 1018.7
20260901132513 70 132 0.0 0.0 0.00 0.77 0.00 86 1018.4
20260901132028 70 132 0.0 0.0 0.00 0.77 0.00 87 1018.5
20260901131524 69 132 0.0 0.0 0.00 0.77 0.00 87 1018.5
20260901131019 69 132 0.0 0.0 0.00 0.77 0.00 87 1018.5
20260901130513 69 132 0.0 0.0 0.00 0.77 0.00 87 1018.4
20260901130041 69 132 0.0 0.0 0.00 0.77 0.00 87 1018.3
20260901125526 70 132 0.0 0.0 0.00 1.10 0.00 86 1018.3
20260901125020 70 132 0.0 0.0 0.00 1.10 0.00 86 1018.0
20260901124516 70 132 0.0 0.0 0.00 1.10 0.00 86 1017.9
20260901124031 70 132 0.0 0.0 0.00 1.10 0.00 86 1017.8
20260901123527 70 132 0.0 0.0 0.00 1.10 0.00 86 1017.8
20260901123023 70 132 0.0 0.0 0.00 1.10 0.00 85 1017.7
20260901122518 70 132 0.0 0.0 0.00 1.10 0.00 85 1017.7
20260901122018 70 132 0.0 0.0 0.00 1.10 0.00 85 1017.7
20260901121513 70 132 0.0 3.0 0.00 1.10 0.00 85 1017.7
20260901121028 70 132 1.0 3.0 0.00 1.10 0.00 85 1017.7
20260901120524 70 132 1.0 2.0 0.00 1.10 0.00 85 1017.7
20260901120032 70 132 1.0 4.0 0.00 1.10 0.00 85 1017.6
20260901115532 70 132 1.0 4.0 0.00 1.25 0.00 84 1017.6
20260901115027 71 132 2.0 4.0 0.00 1.25 0.00 84 1017.5
20260901114521 70 133 2.0 4.0 0.00 1.25 0.00 84 1017.5
20260901114020 71 133 2.0 4.0 0.00 1.25 0.00 84 1017.5
20260901113515 71 133 2.0 4.0 0.00 1.25 0.00 84 1017.5
20260901113030 70 134 2.0 4.0 0.00 1.25 0.00 84 1017.6
20260901112524 70 135 2.0 4.0 0.00 1.25 0.00 84 1017.6
20260901112019 70 136 3.0 4.0 0.00 1.25 0.00 84 1017.6
20260901111514 71 137 3.0 4.0 0.00 1.25 0.00 84 1017.5
20260901111030 71 137 3.0 4.0 0.00 1.25 0.00 84 1017.6
20260901110528 70 138 2.0 4.0 0.00 1.25 0.00 84 1017.5
20260901110040 70 139 2.0 4.0 0.00 1.25 0.00 84 1017.6
20260901105522 70 140 2.0 4.0 0.00 1.25 0.00 84 1017.6
20260901105016 71 140 1.0 3.0 0.00 1.25 0.00 83 1017.5
20260901104531 71 140 1.0 3.0 0.00 1.25 0.00 83 1017.5
20260901104026 71 140 1.0 3.0 0.00 1.25 0.00 82 1017.5
20260901103522 71 140 2.0 3.0 0.00 1.25 0.00 81 1017.5
20260901103017 72 141 1.0 3.0 0.00 1.25 0.00 81 1017.5
20260901102517 72 141 1.0 5.0 0.00 1.25 0.00 81 1017.4
20260901102013 72 141 2.0 5.0 0.00 1.25 0.00 81 1017.4
20260901101527 72 142 2.0 4.0 0.00 1.25 0.00 81 1017.2
20260901101023 72 143 2.0 3.0 0.00 1.25 0.00 81 1017.3
20260901100518 72 143 2.0 3.0 0.00 1.25 0.00 81 1017.2
20260901100045 72 144 1.0 3.0 0.00 1.25 0.00 80 1017.1